CW8466 Weather Reports


Display with metric or nautical units.
time (UTC)temp
F
wind
direction
speed
MPH
gust
MPH
rain 1hr
in
rain 24hr
in
rain mn
in
humidity
%
barometer
mb
20260504034905 64 159 0.0 0.0 0.00 0.00 0.00 85 1018.7
20260504033337 65 159 0.0 0.0 0.00 0.00 0.00 84 1018.8
20260504031845 66 159 0.0 0.0 0.00 0.00 0.00 83 1018.6
20260504030338 66 159 0.0 0.0 0.00 0.00 0.00 82 1018.6
20260504024850 67 159 0.0 0.0 0.00 0.00 0.00 79 1018.6
20260504023338 68 159 0.0 0.0 0.00 0.00 0.00 77 1018.4
20260504021830 68 158 0.0 0.0 0.00 0.00 0.00 75 1018.2
20260504020341 69 157 0.0 0.0 0.00 0.00 0.00 73 1018.1
20260504014855 70 157 0.0 0.0 0.00 0.00 0.00 71 1018.0
20260504013328 70 163 0.0 0.0 0.00 0.00 0.00 69 1017.9
20260504011840 71 152 0.0 0.0 0.00 0.00 0.00 69 1017.8
20260504010402 72 147 0.0 0.0 0.00 0.00 0.00 66 1017.7
20260504004850 73 156 0.0 0.0 0.00 0.00 0.00 64 1017.8
20260504003338 74 148 0.0 0.0 0.00 0.00 0.00 63 1017.9
20260504001844 75 143 0.0 0.0 0.00 0.00 0.00 61 1017.9
20260504000338 75 170 0.0 0.0 0.00 0.00 0.00 59 1018.1
20260503234835 76 161 0.0 0.0 0.00 0.00 0.00 58 1018.1
20260503233334 76 150 0.0 0.0 0.00 0.00 0.00 56 1017.9
20260503231845 77 166 0.0 0.0 0.00 0.00 0.00 56 1017.7
20260503230341 78 141 0.0 0.0 0.00 0.00 0.00 55 1017.8
20260503224838 78 150 0.0 0.0 0.00 0.00 0.00 55 1018.1
20260503223334 79 164 0.0 0.0 0.00 0.00 0.00 54 1018.3
20260503221831 79 120 0.0 0.0 0.00 0.00 0.00 52 1018.3
20260503220355 79 165 0.0 0.0 0.00 0.00 0.00 53 1018.5
20260503214842 80 165 0.0 0.0 0.00 0.00 0.00 51 1018.7
20260503213332 80 96 0.0 1.0 0.00 0.00 0.00 49 1018.8
20260503211837 80 168 0.0 1.0 0.00 0.00 0.00 45 1019.1
20260503210333 80 124 0.0 0.0 0.00 0.00 0.00 42 1019.3
20260503204841 81 94 0.0 0.0 0.00 0.00 0.00 40 1019.6
20260503203328 80 123 0.0 0.0 0.00 0.00 0.00 43 1019.9
20260503201903 81 138 0.0 0.0 0.00 0.00 0.00 41 1020.1
20260503200405 81 113 0.0 0.0 0.00 0.00 0.00 41 1020.4
20260503194837 80 170 0.0 0.0 0.00 0.00 0.00 41 1020.4
20260503193334 80 190 0.0 0.0 0.00 0.00 0.00 43 1020.5
20260503191844 80 108 0.0 1.0 0.00 0.00 0.00 48 1020.9
20260503190336 80 164 0.0 0.0 0.00 0.00 0.00 45 1020.9
20260503184831 80 165 0.0 0.0 0.00 0.00 0.00 44 1021.1
20260503183328 79 157 0.0 0.0 0.00 0.00 0.00 48 1021.7
20260503181836 79 167 0.0 0.0 0.00 0.00 0.00 49 1022.0
20260503180339 79 89 0.0 0.0 0.00 0.00 0.00 49 1022.2
20260503174827 79 128 0.0 0.0 0.00 0.00 0.00 44 1022.5
20260503173336 78 111 0.0 0.0 0.00 0.00 0.00 49 1022.5
20260503171826 78 166 0.0 0.0 0.00 0.00 0.00 51 1022.8
20260503170402 78 123 0.0 4.0 0.00 0.00 0.00 49 1023.0
20260503150340 73 111 0.0 1.0 0.00 0.00 0.00 67 1023.3
20260503130339 57 37 0.0 0.0 0.00 0.00 0.00 100 1022.6
20260503110406 54 37 0.0 0.0 0.00 0.00 0.00 100 1021.2
20260503090350 56 37 0.0 0.0 0.00 0.00 0.00 99 1021.2
20260503080332 56 37 0.0 0.0 0.00 0.00 0.00 97 1021.4
20260503071841 57 37 0.0 0.0 0.00 0.00 0.00 95 1021.7
20260503070347 57 37 0.0 0.0 0.00 0.00 0.00 95 1021.5
20260503060334 57 38 0.0 0.0 0.00 0.00 0.00 96 1021.6
20260503054840 57 38 0.0 0.0 0.00 0.00 0.00 97 1021.7
20260503053346 57 38 0.0 0.0 0.00 0.00 0.00 97 1021.6
20260503051835 57 38 0.0 0.0 0.00 0.00 0.00 97 1021.5
20260503050328 57 38 0.0 0.0 0.00 0.00 0.00 97 1021.4
20260503044833 58 38 0.0 0.0 0.00 0.00 0.00 96 1021.4
20260503043345 59 38 0.0 0.0 0.00 0.00 0.00 94 1021.4
20260503041842 60 38 0.0 0.0 0.00 0.00 0.00 93 1021.3
20260503040342 61 38 0.0 0.0 0.00 0.00 0.00 90 1021.2